Clinton, British Columbia

5:49 PM PDT on April 22, 2018 (GMT -0700)
Clinton

Weather History for CWCL - September, 2013

Change the Weather History Date:

Wednesday, September 25, 2013

  Actual Average Record
Temperature  
Mean Temperature 42 °F -  
Max Temperature 53 °F 48 °F 77 °F (1997)
Min Temperature 31 °F 29 °F 28 °F (1996)
Degree Days  
Heating Degree Days 23    
Moisture  
Dew Point 27 °F    
Average Humidity 54    
Maximum Humidity 80    
Minimum Humidity 20    
Precipitation  
Precipitation 0.02 in - - ()
Sea Level Pressure  
Sea Level Pressure 30.03 in    
Wind  
Wind Speed 6 mph ()    
Max Wind Speed 15 mph    
Max Gust Speed 24 mph    
Visibility 9.0 miles    
Events Rain    
Averages and records for this station are not official NWS values.
T = Trace of Precipitation, MM = Missing Value Source: Averaged Metar Reports

Daily Weather History Graph

Daily Weather History Graph

Search for Another Location

Airport or City:

Astronomy

Sep. 25, 2013 Rise Set
Actual Time 6:57 AM PDT 6:56 PM PDT
Civil Twilight 6:24 AM PDT 7:29 PM PDT
Nautical Twilight 5:45 AM PDT 8:08 PM PDT
Astronomical Twilight 5:05 AM PDT 8:48 PM PDT
Moon 10:32 PM PDT (9/25) 1:42 PM PDT (9/25)
Length of Visible Light 13h 04m
Length of Day
11h 58m
Waning Gibbous, 63% of the Moon is Illuminated
Sep 25
Waning Gibbous
Sep 26
Last Quarter
Oct 4
New
Oct 11
First Quarter
Oct 18
Full

Hourly Weather History & Observations

Time (PDT) Temp. Windchill Dew Point Humidity Pressure Visibility Wind Dir Wind Speed Gust Speed Precip Events Conditions
12:00 AM 39.2 °F 34.2 °F 30.2 °F 70% 29.93 in 9.0 mi NW 6.9 mph - N/A   Mostly Cloudy
12:47 AM 41.0 °F 36.4 °F 32.0 °F 70% 29.90 in 9.0 mi NNW 6.9 mph - N/A Rain Light Rain
1:00 AM 41.0 °F 36.4 °F 32.0 °F 70% 29.94 in 9.0 mi NNW 6.9 mph - N/A Rain Light Rain
1:04 AM 41.0 °F 37.1 °F 32.0 °F 70% 29.90 in 9.0 mi NNW 5.8 mph - N/A   Scattered Clouds
2:00 AM 38 °F - 30 °F 64% 29.96 in 9 mi NW 4.6 mph - -  
2:00 AM 37.4 °F 32.8 °F 30.2 °F 75% 29.96 in 9.0 mi NW 5.8 mph - N/A   Partly Cloudy
3:00 AM 37.4 °F 33.8 °F 30.2 °F 75% 29.98 in 9.0 mi NW 4.6 mph - N/A   Clear
4:00 AM 37.4 °F 32.8 °F 30.2 °F 75% 29.98 in 9.0 mi NW 5.8 mph - N/A   Clear
5:00 AM 32 °F - 27 °F 74% 30.01 in 9 mi Calm Calm - -  
5:00 AM 32.0 °F - 26.6 °F 80% 30.01 in 9.0 mi Calm Calm - N/A   Clear
6:00 AM 35.6 °F 31.7 °F 28.4 °F 75% 30.01 in 9.0 mi NW 4.6 mph - N/A   Clear
7:00 AM 37.4 °F 32.8 °F 28.4 °F 70% 30.03 in 9.0 mi NW 5.8 mph - N/A   Clear
8:00 AM 40 °F - 30 °F 56% 30.05 in 9 mi NW 8.1 mph - -  
8:00 AM 39.2 °F 33.0 °F 30.2 °F 70% 30.05 in 9.0 mi NW 9.2 mph 17.3 mph N/A   Clear
9:00 AM 42.8 °F 36.6 °F 30.2 °F 61% 30.06 in 9.0 mi NW 11.5 mph 20.7 mph N/A   Clear
10:00 AM 44.6 °F 40.7 °F 30.2 °F 57% 30.06 in 9.0 mi NNW 6.9 mph 19.6 mph N/A   Clear
11:00 AM 49 °F - 30 °F 36% 30.05 in 9 mi NNW 10.4 mph - -  
11:00 AM 48.2 °F - 30.2 °F 50% 30.05 in 9.0 mi NNW 15.0 mph - N/A   Clear
12:00 PM 50.0 °F - 28.4 °F 43% 30.03 in 9.0 mi North 9.2 mph 19.6 mph N/A   Partly Cloudy
1:00 PM 50.0 °F - 24.8 °F 37% 30.03 in 9.0 mi NNW 9.2 mph 24.2 mph N/A   Partly Cloudy
2:00 PM 52 °F - 24 °F 22% 30.03 in 9 mi NNW 10.4 mph - -  
2:00 PM 51.8 °F - 24.8 °F 35% 30.03 in 9.0 mi NNW 8.1 mph 18.4 mph N/A   Partly Cloudy
3:00 PM 51.8 °F - 23.0 °F 33% 30.04 in 9.0 mi NNW 8.1 mph 23.0 mph N/A   Partly Cloudy
4:00 PM 51.8 °F - 23.0 °F 33% 30.03 in 9.0 mi North 8.1 mph - N/A   Partly Cloudy
5:00 PM 51 °F - 22 °F 20% 30.05 in 9 mi NNW 8.1 mph - -  
5:00 PM 51.8 °F - 21.2 °F 30% 30.05 in 9.0 mi North 11.5 mph 17.3 mph N/A   Partly Cloudy
6:00 PM 48.2 °F - 19.4 °F 32% 30.06 in 9.0 mi NW 4.6 mph - N/A   Partly Cloudy
7:00 PM 41.0 °F 37.1 °F 23.0 °F 49% 30.09 in 9.0 mi WNW 5.8 mph - N/A   Clear
8:00 PM 40 °F - 23 °F 38% 30.10 in 9 mi NW 6.9 mph - -  
8:00 PM 39.2 °F 35.0 °F 23.0 °F 52% 30.10 in 9.0 mi NW 5.8 mph - N/A   Clear
9:00 PM 41.0 °F 35.8 °F 24.8 °F 53% 30.11 in 9.0 mi NW 8.1 mph - N/A   Clear
10:00 PM 41.0 °F 35.8 °F 26.6 °F 57% 30.11 in 9.0 mi NW 8.1 mph - N/A   Clear
11:00 PM 39 °F - 27 °F 50% 30.12 in 9 mi NW 3.5 mph - -  
11:00 PM 39.2 °F 35.9 °F 26.6 °F 61% 30.12 in 9.0 mi NW 4.6 mph - N/A   Clear